Home   Weather   Le Mans   Past weeks

Flag for France Past Weather in Le Mans, Pays de la Loire, France — Yesterday and Last 2 Weeks

Now
39 °F

Clear.


Feels Like: 39 °F
Forecast: 21 / 35 °F
Wind: 2 mph from North

Location: Le Mans Airport

Current Time: Jan 24, 2017 at 2:36:57 pm

Latest Report: Jan 24, 2017 at 2:00 pm


Visibility: 4 mi

Pressure: 30.39 "Hg

Humidity: 70%

Dew Point: 30 °F

Location of Le MansLocation

Past Weather in Le Mans — Graph

°F

Le Mans Temperature Yesterday

Maximum temperature yesterday: 46 °F (at 2:30 pm)
Minimum temperature yesterday: 25 °F (at 4:30 am)
Average temperature yesterday: 35 °F

High & Low Weather Summary for the Past Weeks

 TemperatureHumidityPressure
High57 °F (Jan 11, 3:00 pm)100% (Jan 9, 1:00 pm)30.54 "Hg (Jan 9, 1:00 pm)
Low16 °F (Jan 21, 8:00 am)37% (Jan 22, 4:00 pm)29.47 "Hg (Jan 12, 6:00 pm)
Average37 °F80%30.24 "Hg
* Reported Jan 9 1:00 pm — Jan 24 1:30 pm, Le Mans, Weather by CustomWeather, © 2017

Note: Actual official high and low records may vary slightly from our data, if they occured in-between our weather recording intervals... More about our weather records

Advertising

Le Mans Weather History for the Previous 24 Hours

Scroll right to see more
 ConditionsComfort  
Time TempWeatherWind HumidityBarometerVisibility
1:30 pm
Tue, Jan 24
37 °FFog.3 mph75%30.39 "Hg3 mi
1:00 pm36 °FFog.5 mph81%30.39 "Hg3 mi
12:30 pm34 °FFog.2 mph81%30.42 "Hg3 mi
12:00 pm32 °FIce fog.No wind87%30.42 "Hg2 mi
11:30 am30 °FIce fog.2 mph86%30.42 "Hg2 mi
11:00 am28 °FIce fog.2 mph93%30.42 "Hg2 mi
10:30 am28 °FIce fog.2 mph86%30.39 "Hg2 mi
10:00 am25 °FIce fog.No wind93%30.39 "Hg2 mi
9:30 am23 °FIce fog.No wind93%30.39 "Hg2 mi
9:00 am21 °FIce fog.No wind93%30.39 "Hg2 mi
8:30 am21 °FIce fog.1 mph86%30.39 "Hg2 mi
8:00 am21 °FIce fog.No wind86%30.39 "Hg3 mi
7:30 am21 °FIce fog.No wind86%30.36 "Hg2 mi
7:00 am21 °FIce fog.No wind93%30.36 "Hg2 mi
6:30 am21 °FIce fog.No wind93%30.36 "Hg3 mi
6:00 am23 °FIce fog.No wind86%30.36 "Hg3 mi
5:30 am23 °FIce fog.2 mph93%30.36 "Hg3 mi
5:00 am23 °FIce fog.1 mph86%30.36 "Hg3 mi
4:30 am23 °FIce fog.No wind86%30.36 "Hg3 mi
4:00 am23 °FIce fog.No wind93%30.36 "Hg3 mi
3:30 am23 °FIce fog.No wind93%30.36 "Hg3 mi
3:00 am23 °FIce fog.2 mph93%30.36 "Hg3 mi
2:30 am25 °FIce fog.2 mph86%30.36 "Hg3 mi
2:00 am25 °FClear.2 mph86%30.36 "Hg4 mi
1:30 am25 °FIce fog.2 mph86%30.36 "Hg3 mi
1:00 am27 °FClear.2 mph86%30.36 "Hg4 mi
12:30 am28 °FClear.No wind80%30.36 "Hg4 mi
12:00 am32 °FClear.No wind75%30.36 "Hg4 mi
11:30 pm
Mon, Jan 23
32 °FClear.No wind75%30.36 "Hg4 mi
11:00 pm32 °FClear.2 mph75%30.36 "Hg4 mi
10:30 pm34 °FClear.5 mph75%30.36 "Hg4 mi
10:00 pm32 °FClear.2 mph75%30.33 "Hg5 mi
9:30 pm34 °FClear.3 mph75%30.33 "Hg5 mi
9:00 pm34 °FClear.2 mph75%30.33 "Hg6 mi
8:30 pm37 °FClear.3 mph65%30.33 "Hg10 mi
8:00 pm37 °FClear.2 mph65%30.33 "Hg10 mi
7:30 pm39 °FClear.6 mph61%30.33 "Hg10 mi
7:00 pm41 °FClear.8 mph57%30.33 "Hg10 mi
6:30 pm41 °FClear.6 mph57%30.33 "Hg10 mi
6:00 pm43 °FClear.6 mph53%30.33 "Hg10 mi
5:30 pm43 °FSunny.7 mph53%30.30 "Hg10 mi
5:00 pm45 °FPassing clouds.7 mph49%30.30 "HgN/A
4:30 pm46 °FSunny.7 mph46%30.30 "Hg10 mi
4:00 pm46 °FSunny.12 mph46%30.30 "Hg10 mi
3:30 pm46 °FSunny.9 mph43%30.30 "Hg10 mi
3:00 pm46 °FSunny.9 mph43%30.30 "Hg10 mi
2:30 pm46 °FPassing clouds.7 mph43%30.30 "HgN/A
2:00 pm45 °FPassing clouds.7 mph46%30.33 "HgN/A
Weather by CustomWeather, © 2017

See weather overviewHow to use our weather pages